Haleyville, AL

9:07 AM CDT on September 26, 2017 (GMT -0500)
Haleyville

Weather History for K1M4 - August, 2013

Change the Weather History Date:

Wednesday, August 28, 2013

  Actual Average (KJFX) Record (KJFX)
Temperature  
Mean Temperature 76 °F -  
Max Temperature 88 °F 88 °F 100 °F (1983)
Min Temperature 63 °F 64 °F 55 °F (1968)
Cooling Degree Days 10    
Growing Degree Days 26 (Base 50)    
Moisture  
Dew Point 67 °F    
Average Humidity 83    
Maximum Humidity 100    
Minimum Humidity 48    
Precipitation  
Precipitation 0.00 in - - ()
Sea Level Pressure  
Sea Level Pressure 30.14 in    
Wind  
Wind Speed 0 mph (NW)    
Max Wind Speed 6 mph    
Max Gust Speed -    
Visibility 7 miles    
Events      
Averages and records for this station are not official NWS values.
T = Trace of Precipitation, MM = Missing Value Source: NWS Daily Summary

Daily Weather History Graph

Daily Weather History Graph

Search for Another Location

Airport or City:

Trip Planner

Search our weather history database for the weather conditions in past years. The results will help you decide how hot, cold, wet, or windy it might be!

Date:

Astronomy

Aug. 28, 2013 Rise Set
Actual Time 6:21 AM CDT 7:21 PM CDT
Civil Twilight 5:55 AM CDT 7:47 PM CDT
Nautical Twilight 5:24 AM CDT 8:17 PM CDT
Astronomical Twilight 4:53 AM CDT 8:49 PM CDT
Moon No Moon Rise 1:51 PM CDT (8/28)
Length of Visible Light 13h 51m
Length of Day
13h 00m
Waning Gibbous, 47% of the Moon is Illuminated
Aug 28
Waning Gibbous
Sep 5
New
Sep 12
First Quarter
Sep 19
Full
Sep 26
Last Quarter

Hourly Weather History & Observations

Time (CDT) Temp. Heat Index Dew Point Humidity Pressure Visibility Wind Dir Wind Speed Gust Speed Precip Events Conditions
12:56 AM 65.8 °F - 65.8 °F 100% 30.15 in 4.0 mi Calm Calm - N/A   Clear
1:56 AM 64.9 °F - 64.9 °F 100% 30.14 in 2.5 mi Calm Calm - N/A   Clear
2:23 AM 64.4 °F - 64.4 °F 100% 30.10 in 5.0 mi Calm Calm - N/A   Clear
2:56 AM 64.9 °F - 64.9 °F 100% 30.14 in 3.0 mi Calm Calm - N/A   Clear
3:56 AM 63.9 °F - 63.9 °F 100% 30.14 in 3.0 mi Calm Calm - N/A   Clear
4:56 AM 63.0 °F - 63.0 °F 100% 30.14 in 4.0 mi Calm Calm - N/A   Clear
5:56 AM 63.0 °F - 63.0 °F 100% 30.16 in 5.0 mi Calm Calm - N/A   Clear
6:56 AM 63.0 °F - 63.0 °F 100% 30.17 in 4.0 mi Calm Calm - N/A   Clear
7:56 AM 70.0 °F - 66.9 °F 90% 30.18 in 10.0 mi Calm Calm - N/A   Clear
8:56 AM 75.9 °F - 66.9 °F 74% 30.18 in 10.0 mi Calm Calm - N/A   Clear
9:56 AM 81.0 °F 83.3 °F 66.9 °F 62% 30.18 in 10.0 mi NNW 5.8 mph - N/A   Clear
10:56 AM 82.9 °F 85.4 °F 66.9 °F 58% 30.18 in 10.0 mi NW 5.8 mph - N/A   Clear
11:56 AM 84.9 °F 88.2 °F 68.0 °F 57% 30.18 in 10.0 mi Calm Calm - N/A   Clear
12:56 PM 86.0 °F 88.8 °F 66.9 °F 53% 30.17 in 10.0 mi Calm Calm - N/A   Scattered Clouds
1:56 PM 86.9 °F 90.3 °F 68.0 °F 53% 30.15 in 10.0 mi Calm Calm - N/A   Partly Cloudy
2:56 PM 88.9 °F 91.8 °F 66.9 °F 48% 30.14 in 10.0 mi Calm Calm - N/A   Clear
3:56 PM 86.9 °F 89.6 °F 66.9 °F 51% 30.13 in 10.0 mi Calm Calm - N/A   Clear
4:56 PM 88.0 °F 90.7 °F 66.9 °F 49% 30.12 in 10.0 mi Calm Calm - N/A   Clear
5:56 PM 86.0 °F 89.7 °F 68.9 °F 56% 30.11 in 10.0 mi Calm Calm - N/A   Clear
6:56 PM 81.0 °F 86.2 °F 73.9 °F 79% 30.11 in 10.0 mi Calm Calm - N/A   Clear
7:56 PM 75.9 °F - 72.0 °F 87% 30.11 in 10.0 mi Calm Calm - N/A   Clear
8:56 PM 72.9 °F - 70.9 °F 93% 30.13 in 6.0 mi Calm Calm - N/A   Clear
9:56 PM 70.9 °F - 70.9 °F 100% 30.14 in 7.0 mi Calm Calm - N/A   Clear
10:56 PM 70.0 °F - 70.0 °F 100% 30.14 in 3.0 mi Calm Calm - N/A   Clear
11:23 PM 69.8 °F - 69.8 °F 100% 30.11 in 2.5 mi Calm Calm - N/A   Clear
11:30 PM 69.8 °F - 69.8 °F 100% 30.11 in 3.0 mi Calm Calm - N/A   Clear
11:43 PM 69.8 °F - 69.8 °F 100% 30.10 in 2.5 mi Calm Calm - N/A   Clear
11:56 PM 68.9 °F - 68.9 °F 100% 30.14 in 2.5 mi Calm Calm - N/A   Clear